This is the latest recevied weather packets stored in our database for station/object KF4UQS-14. If no packets are shown the sender has not sent any weather packets the latest 10 day(s).
| Time | Temp. | Humidity | Pressure | Rain* | Wind** | Luminosity | Snow |
|---|---|---|---|---|---|---|---|
| 1777487951 | 20.56° C | 65% | 1012 hPa | 0 mm | - | 472 W/m² | - |
| 1777487648 | 20° C | 65% | 1012.2 hPa | 0 mm | - | 315 W/m² | - |
| 1777487345 | 20.56° C | 65% | 1012.2 hPa | 0 mm | - | 308 W/m² | - |
| 1777487043 | 20.56° C | 63% | 1012.4 hPa | 0 mm | - | 298 W/m² | - |
| 1777486738 | 20.56° C | 64% | 1012.2 hPa | 0 mm | - | 289 W/m² | - |
| 1777486437 | 21.11° C | 62% | 1012.3 hPa | 0 mm | - | 295 W/m² | - |
| 1777486134 | 20.56° C | 60% | 1012.2 hPa | 0 mm | - | 313 W/m² | - |
| 1777485830 | 20.56° C | 59% | 1012.4 hPa | 0 mm | - | 305 W/m² | - |
| 1777485526 | 20.56° C | 60% | 1012.5 hPa | 0 mm | - | 293 W/m² | - |
| 1777485223 | 21.11° C | 59% | 1012.7 hPa | 0 mm | - | 263 W/m² | - |
| 1777484919 | 21.11° C | 60% | 1012.8 hPa | 0 mm | - | 252 W/m² | - |
| 1777484616 | 21.11° C | 59% | 1012.7 hPa | 0 mm | - | 342 W/m² | - |
| 1777484313 | 21.11° C | 59% | 1012.8 hPa | 0 mm | - | 430 W/m² | - |
| 1777484009 | 21.11° C | 61% | 1012.9 hPa | 0 mm | - | 485 W/m² | - |
| 1777483705 | 21.67° C | 61% | 1013.2 hPa | 0 mm | - | 798 W/m² | - |
| 1777483401 | 21.67° C | 61% | 1013.2 hPa | 0 mm | - | 592 W/m² | - |
| 1777483096 | 20.56° C | 62% | 1013.2 hPa | 0 mm | - | 647 W/m² | - |
| 1777482794 | 20° C | 64% | 1013.3 hPa | 0 mm | - | 497 W/m² | - |
| 1777482489 | 20.56° C | 65% | 1013.1 hPa | 0 mm | - | 381 W/m² | - |
| 1777482187 | 20.56° C | 64% | 1013.4 hPa | 0 mm | - | 476 W/m² | - |
| 1777481884 | 20° C | 63% | 1013.4 hPa | 0 mm | - | 531 W/m² | - |
| 1777481582 | 20° C | 65% | 1013.5 hPa | 0 mm | - | 285 W/m² | - |
| 1777481278 | 20.56° C | 64% | 1013.5 hPa | 0 mm | - | 419 W/m² | - |
| 1777480975 | 20.56° C | 64% | 1013.7 hPa | 0 mm | - | 356 W/m² | - |
| 1777480672 | 20.56° C | 65% | 1013.6 hPa | 0 mm | - | 457 W/m² | - |
* Rain latest hour (hover to see other rain measurements)
** Current wind speed in m/s (hover to see current wind gust speed)